CZ-3B DEB, 40852

Orbit data source: Space-Track

CZ-3B DEB, 40852 is space debris in HEO originally from a launch on Mon, 19 Dec 2011 UTC launched from the Xichang Space Center, China (XSC). Debris objects in space refer to the collection of defunct objects orbiting the Earth. Examples of debris include non-operational satellites, rocket bodies, and fragments generated from explosions, collisions, or faulty payload assembly.

Loading next visibility...
Identifier
40852, 2011-077AH
Orbit
HEO
Country
Flag of CNCN / PRC
Related business
Manufacturer
CALT
Mission
Spacecraft
Bus & Motor
Unknown
Mass
Unknown
Launch date (UTC)
2011-12-19 (14 years ago)
Launch vehicle
Unknown
Launch site
Xichang Space Center, China (XSC)
Object type
Payload
Rocket body
Debris
Shape & HBR
Unknown shape, 0.2 m
Radar Cross Section
Medium (>0.1 m² and <1 m²)

Expand to show TLE details & history
Last TLE update: 5 days ago

TLE from 5 days ago
0 CZ-3B DEB
1 40852U 11077AH  26090.40149568  .00000063  00000-0  00000-0 0  9998
2 40852  26.9083  57.8031 7335046 273.5923  13.3566  1.90689287 84873
Epoch: 2026-03-31T09:38Z
TLE epoch observation values (Epoch: 2026-03-31T09:38:09.226Z)
Latitude
-0.00059°
Longitude
84.41655°
Altitude
5,729.603 km
Speed
7.164 km/s
True Right ascension
03h 50m 56s
True Declination
0° 00' 02"
Sunlit
Object was in daylight at epoch
Visualization orbit readout
Latitude
Unknown
Longitude
Unknown
Altitude
Unknown
Speed
Unknown
Apparent Right ascension
Unknown
Apparent Declination
Unknown
Sunlit
N/A
Visualization observer readout
Local Sidereal Time
01:03:43
Azimuth
Unknown
Elevation
Unknown
Doppler factor
Unknown
Orbital elements
Apogee altitude
41,246.554 km
Perigee altitude
943.309 km
Semi-major axis
27,473.069 km
Eccentricity
0.7335
Inclination
26.9083°
RAAN
57.8031°
Arg. of periapsis
273.5923°
True anomaly
87.03318°
Mean anomaly
13.3566°
Eccentric anomaly
40.83984°
Mean motion
0.47663 °/min
Orbital period
755.3 mins
BSTAR
0
Loading maneuver chart data...
Computing Atmospheric mass density...
Loading historical data...
Loading historical data...
Loading historical data...
Loading historical data...
Loading historical data...
Loading historical data...
Loading historical data...

Documentation

Showing up to 5 results
|